Retour au catalogue

STARLINK-11444

ActifCommunicationsVLEO
NORAD 62409·PAYLOAD·🇺🇸 United States

Lancé Dec 23, 2024 depuis Cape Canaveral Space Force Station

Loading…

Prochains Passages (prochaines 24 heures)

TLE

FraisSource: CelesTrak SupGP

Époque: Sep 14, 2026, 21:36 UTC

1 62409C 24249A   26257.90048611 -.00016324  00000+0 -12684-3 0  2571
2 62409  43.0002 107.4688 0001552 277.1594 136.2384 15.70835893    11

Suivez STARLINK-11444 en temps réel avec AllMySat

Download on the App Store